Location: Dampvalley
(47.9094°N, 6.1967°E)
Time: 23:26:00
(UTC+00:00)

AO-109 - Pass Details

Date: 05 December 2021
Orbit: 479 x 515 km, 60.7° (Epoch: 25 January)

Event Time Altitude Azimuth Distance (km) Brightness Sun altitude
Exits shadow 04:21:53 34° 91° (E) 801 ? -27.0°
Drops below altitude 10° 04:24:14 10° 115° (ESE) 1,625 ? -26.6°
Sets 04:26:30 0° 121° (ESE) 2,529 ? -26.2°
